TimeMDT,TemperatureF,Dew PointF,Humidity,Sea Level PressureIn,VisibilityMPH,Wind Direction,Wind SpeedMPH,Gust SpeedMPH,PrecipitationIn,Events,Conditions,WindDirDegrees,DateUTC
12:55 AM,56.5,23.4,28,29.90,10.0,NW,12.7,-,N/A,,Clear,320,2012-10-03 06:55:00
1:55 AM,55.0,21.2,27,29.93,10.0,WNW,13.8,-,N/A,,Clear,300,2012-10-03 07:55:00
2:55 AM,55.2,18.3,24,29.95,10.0,NW,20.7,-,N/A,,Clear,310,2012-10-03 08:55:00
3:55 AM,52.3,23.5,33,29.98,9.0,WNW,23.0,-,N/A,,Clear,300,2012-10-03 09:55:00
4:06 AM,51.8,23.0,33,29.99,6.0,NW,24.2,29.9,N/A,,Haze,310,2012-10-03 10:06:00
4:15 AM,51.8,23.0,33,30.00,5.0,NW,23.0,28.8,N/A,,Haze,310,2012-10-03 10:15:00
4:44 AM,50.0,23.0,35,30.01,7.0,WNW,25.3,28.8,N/A,,Scattered Clouds,300,2012-10-03 10:44:00
4:55 AM,50.7,22.1,33,30.01,7.0,WNW,23.0,28.8,N/A,,Scattered Clouds,300,2012-10-03 10:55:00
5:38 AM,50.0,21.2,32,30.03,6.0,WNW,21.9,29.9,N/A,,Haze,290,2012-10-03 11:38:00
5:55 AM,49.5,20.1,31,30.04,10.0,WNW,24.2,28.8,N/A,,Clear,290,2012-10-03 11:55:00
6:55 AM,48.7,18.5,30,30.07,10.0,WNW,21.9,27.6,N/A,,Clear,300,2012-10-03 12:55:00
7:55 AM,46.0,15.8,30,30.11,6.0,WNW,19.6,25.3,N/A,,Haze,300,2012-10-03 13:55:00
8:05 AM,46.4,15.8,29,30.13,10.0,WNW,21.9,31.1,N/A,,Clear,300,2012-10-03 14:05:00
8:55 AM,45.9,14.7,29,30.14,10.0,WNW,21.9,28.8,N/A,,Clear,300,2012-10-03 14:55:00
9:55 AM,49.1,12.0,23,30.16,10.0,NW,28.8,36.8,N/A,,Clear,320,2012-10-03 15:55:00
10:55 AM,51.8,10.9,19,30.19,10.0,NW,24.2,31.1,N/A,,Clear,310,2012-10-03 16:55:00
11:55 AM,54.5,9.3,16,30.18,10.0,NW,26.5,32.2,N/A,,Clear,310,2012-10-03 17:55:00
12:55 PM,57.0,8.4,14,30.15,10.0,NW,29.9,36.8,N/A,,Clear,320,2012-10-03 18:55:00
1:55 PM,59.0,6.6,12,30.16,10.0,NW,21.9,33.4,N/A,,Clear,320,2012-10-03 19:55:00
2:55 PM,60.8,7.2,12,30.15,10.0,NNW,21.9,29.9,N/A,,Clear,330,2012-10-03 20:55:00
3:55 PM,62.1,7.5,12,30.13,10.0,NW,23.0,29.9,N/A,,Clear,310,2012-10-03 21:55:00
4:55 PM,62.8,7.7,11,30.13,10.0,NW,19.6,-,N/A,,Clear,310,2012-10-03 22:55:00
5:55 PM,62.2,9.3,12,30.14,10.0,NW,16.1,-,N/A,,Clear,320,2012-10-03 23:55:00
6:55 PM,60.1,10.0,14,30.14,10.0,NW,12.7,-,N/A,,Clear,320,2012-10-04 00:55:00
7:55 PM,52.2,11.3,20,30.17,10.0,NW,8.1,-,N/A,,Clear,320,2012-10-04 01:55:00
8:55 PM,45.1,10.6,25,30.20,10.0,Calm,Calm,-,N/A,,Clear,0,2012-10-04 02:55:00
9:55 PM,42.1,7.9,25,30.20,10.0,Calm,Calm,-,N/A,,Clear,0,2012-10-04 03:55:00
10:55 PM,37.4,11.1,34,30.21,10.0,Calm,Calm,-,N/A,,Clear,0,2012-10-04 04:55:00
11:55 PM,34.7,12.4,40,30.22,10.0,ESE,5.8,-,N/A,,Clear,110,2012-10-04 05:55:00